UFO 4 (USA 108)         
1 23467U 95003A   19261.33140639 -.00000021  00000-0  00000+0 0  9990
2 23467   9.8940  22.3360 0003215 117.9937 148.1367  1.00274613 90269
ATLAS 2 CENTAUR R/B     
1 23468U 95003B   19258.77231541  .00000999  00000-0  20550-3 0  9997
2 23468  26.7871  69.5196 6034541 257.1213  32.9417  3.98938970314174